This is the latest recevied weather packets stored in our database for station/object YO6SAY-10. If no packets are shown the sender has not sent any weather packets the latest 10 day(s).
| Time | Temp. | Humidity | Pressure | Rain* | Wind** | Luminosity | Snow |
|---|---|---|---|---|---|---|---|
| 1777670084 | 10.56° C | 44% | 955.9 hPa | - | - | - | - |
| 1777669184 | 10.56° C | 44% | 955.9 hPa | - | - | - | - |
| 1777668284 | 11.11° C | 44% | 955.8 hPa | - | - | - | - |
| 1777667384 | 11.11° C | 44% | 955.9 hPa | - | - | - | - |
| 1777666483 | 11.11° C | 44% | 955.9 hPa | - | - | - | - |
| 1777665583 | 11.11° C | 44% | 956 hPa | - | - | - | - |
| 1777664683 | 11.11° C | 44% | 955.9 hPa | - | - | - | - |
| 1777663783 | 11.11° C | 41% | 956 hPa | - | - | - | - |
| 1777662883 | 11.11° C | 41% | 956 hPa | - | - | - | - |
| 1777661983 | 11.11° C | 40% | 956 hPa | - | - | - | - |
| 1777661083 | 11.11° C | 40% | 956 hPa | - | - | - | - |
| 1777660183 | 11.11° C | 39% | 955.8 hPa | - | - | - | - |
| 1777659283 | 11.67° C | 39% | 955.7 hPa | - | - | - | - |
| 1777658382 | 11.67° C | 38% | 955.5 hPa | - | - | - | - |
| 1777657482 | 11.67° C | 38% | 955.4 hPa | - | - | - | - |
| 1777656579 | 11.67° C | 37% | 955.5 hPa | - | - | - | - |
| 1777655679 | 11.67° C | 36% | 955.3 hPa | - | - | - | - |
| 1777654779 | 11.67° C | 35% | 955.4 hPa | - | - | - | - |
| 1777653879 | 11.67° C | 35% | 955.2 hPa | - | - | - | - |
| 1777652979 | 11.67° C | 33% | 955.1 hPa | - | - | - | - |
| 1777652079 | 12.22° C | 32% | 955.2 hPa | - | - | - | - |
| 1777651178 | 12.78° C | 32% | 955.1 hPa | - | - | - | - |
| 1777650278 | 13.89° C | 32% | 955.1 hPa | - | - | - | - |
| 1777649378 | 16.67° C | 31% | 955 hPa | - | - | - | - |
| 1777648477 | 16.67° C | 30% | 955.2 hPa | - | - | - | - |
* Rain since midnight (hover to see other rain measurements)
** Current wind speed in m/s (hover to see current wind gust speed)